[[{"header":{"parameterUnit":"m.s-1","parameterCategory":1,"la1":30.2991,"la2":30.254,"lo1":-89.0895,"lo2":-89.0444,"dy":0.0017,"dx":0.0017,"nx":28,"ny":28,"refTime":"2023-04-16T21:00:00:Z","depth":0,"parameterNumber":2,"parameterNumberName":"U-component_of_WINDS"},"data":[0,0,0,0,0,0,0,0,0,0,0,0,0,0,0,0,0,0,0,0,0,0,0,0,0,0,0,0,0,0,0,0,0,0,0,0,0,0,0,0,0,0,0,0,0,0,0,0,0,0,0,0,0,0,0,0,0,0,-3.4283,-3.4283,0,-3.4306,-3.4307,-3.4307,-3.427,-3.4269,-3.4268,-3.4266,-3.429,-3.4292,-3.4294,0,0,0,0,0,0,0,0,0,0,0,0,0,-3.4207,-3.4208,-3.4283,-3.4283,-3.4283,-3.4306,-3.4307,-3.4307,-3.427,-3.4269,-3.4267,-3.4266,-3.429,-3.4292,-3.4294,0,0,0,0,0,0,0,0,0,0,0,0,0,-3.4236,-3.4209,-3.4283,-3.4268,-3.4267,-3.4306,-3.4307,-3.4307,-3.4271,-3.4269,-3.4267,-3.4265,-3.4289,-3.4292,-3.4294,-3.435,0,0,-3.4303,-3.4304,0,0,0,0,0,0,0,0,-3.4234,-3.4239,-3.427,-3.4269,-3.4268,-3.4283,-3.4289,-3.4321,-3.4271,-3.4269,-3.4266,-3.4264,-3.429,-3.4292,-3.4301,-3.4351,-3.4352,-3.4303,-3.4305,-3.4306,-3.4307,0,0,0,0,0,0,0,-3.4232,-3.4237,-3.4292,-3.427,-3.4269,-3.426,-3.4262,-3.4295,-3.429,-3.4269,-3.4266,-3.427,-3.4289,-3.4298,-3.4301,-3.4352,-3.4303,-3.4305,-3.4307,-3.4308,-3.4451,-3.4453,0,0,0,0,0,0,-3.4232,-3.4236,-3.4291,-3.4293,-3.4246,-3.4263,-3.4265,-3.428,-3.4289,-3.4289,-3.4271,-3.4268,-3.4294,-3.4298,-3.4302,-3.4367,-3.4306,-3.4308,-3.431,-3.4448,-3.4451,-3.4453,0,0,0,0,0,0,-3.4231,-3.4237,-3.429,-3.4264,-3.427,-3.4267,-3.4283,-3.4282,-3.4291,-3.4291,-3.429,-3.4282,-3.4293,-3.4298,-3.4338,-3.4368,-3.431,-3.4312,-3.4446,-3.4449,-3.4452,-3.4499,0,0,0,0,0,0,-3.4228,-3.4237,-3.4257,-3.4264,-3.4271,-3.4326,-3.4285,-3.4284,-3.4296,-3.4292,-3.4301,-3.43,-3.4292,-3.4335,-3.4341,-3.437,-3.4314,-3.4443,-3.4447,-3.4451,-3.4494,-3.4503,-3.451,0,0,0,0,0,-3.4226,-3.4269,-3.4258,-3.4265,-3.4297,-3.4328,-3.4332,-3.4321,-3.4299,-3.4319,-3.432,-3.43,-3.4364,-3.4339,-3.4346,-3.4377,-3.4441,-3.4446,-3.4451,-3.4491,-3.4501,-3.451,0,0,0,0,0,0,-3.4264,-3.427,-3.4258,-3.4305,-3.4316,-3.4321,-3.4347,-3.4333,-3.435,-3.4346,-3.4332,-3.4335,-3.4378,-3.4382,-3.4354,-3.4432,-3.4399,-3.4405,-3.4427,-3.4437,-3.4445,-3.4442,-3.4317,0,0,0,0,0,-3.4279,-3.4303,-3.4307,-3.4348,-3.4354,-3.435,-3.4363,-3.4354,-3.4366,-3.437,-3.4373,-3.4385,-3.4408,-3.4423,-3.4444,-3.4496,-3.4498,-3.4521,-3.4529,-3.4535,-3.454,-3.4569,-3.4579,-3.4469,-3.4469,-3.4469,0,0,-3.4307,-3.4313,-3.4329,-3.4356,-3.4363,-3.4389,-3.4354,-3.4383,-3.4402,-3.4374,-3.4412,-3.4416,-3.4428,-3.4475,-3.4496,-3.4479,-3.4572,-3.4542,-3.4547,-3.4548,-3.4575,-3.4585,-3.4595,-3.4472,-3.4472,-3.4471,0,0,-3.4373,-3.438,-3.4415,-3.4425,-3.4438,-3.4435,-3.4444,-3.4452,-3.4453,-3.4492,-3.4472,-3.4496,-3.4535,-3.4545,-3.4555,-3.4629,-3.4611,-3.4636,-3.4677,-3.4705,-3.4714,-3.4721,-3.4747,-3.4756,-3.4642,-3.4642,-3.4642,0,-3.4407,-3.4445,-3.4435,-3.4466,-3.4478,-3.4456,-3.4492,-3.4502,-3.4521,-3.453,-3.4512,-3.4562,-3.4569,-3.4618,-3.4636,-3.4646,-3.4655,-3.4634,-3.4713,-3.4721,-3.4728,-3.4752,-3.4762,-3.4645,-3.4644,-3.4644,-3.4644,0,-3.4486,-3.4514,-3.4541,-3.456,-3.4576,-3.4609,-3.4605,-3.4622,-3.4614,-3.4613,-3.4654,-3.4662,-3.4685,-3.4696,-3.4688,-3.4745,-3.4734,-3.4715,-3.4682,-3.4741,-3.4764,-3.4773,-3.4649,-3.4648,-3.4647,-3.4646,0,0,-3.4573,-3.459,-3.4599,-3.4609,-3.4623,-3.4644,-3.4677,-3.47,-3.4715,-3.473,-3.4758,-3.4793,-3.4776,-3.4788,-3.4781,-3.4806,-3.4864,-3.4784,-3.4784,-3.4797,-3.4927,-3.494,-3.4951,-3.4854,-3.4855,-3.4857,-3.4926,0,-3.4638,-3.4695,-3.4688,-3.4742,-3.4768,-3.4749,-3.4778,-3.4791,-3.4792,-3.4815,-3.4817,-3.4842,-3.4818,-3.4825,-3.4849,-3.4851,-3.4889,-3.4847,-3.4878,-3.488,-3.4874,-3.4963,-3.4977,-3.5041,-3.4935,-3.4936,-3.4938,0,-3.472,-3.4739,-3.4796,-3.4808,-3.4818,-3.4844,-3.4866,-3.4888,-3.4902,-3.4902,-3.4917,-3.4906,-3.494,-3.4908,-3.4956,-3.4927,-3.494,-3.4944,-3.4946,-3.4947,-3.491,-3.4965,-3.5062,-3.5071,-3.4952,-3.495,-3.4949,0,-3.4777,-3.4817,-3.4856,-3.4865,-3.488,-3.4899,-3.4906,-3.4919,-3.4934,-3.4953,-3.4963,-3.4986,-3.4998,-3.5017,-3.5013,-3.499,-3.5062,-3.5029,-3.5062,-3.5062,-3.5075,-3.5074,-3.5174,-3.5087,-3.5087,-3.5087,-3.5087,0,-3.4849,-3.4884,-3.4882,-3.4906,-3.4946,-3.4939,-3.4979,-3.4984,-3.4996,-3.5021,-3.5007,-3.5031,-3.5026,-3.505,-3.5048,-3.5087,-3.5093,-3.5094,-3.5093,-3.5094,-3.5094,-3.5101,-3.5096,-3.5089,-3.5089,-3.5088,-3.5088,0,-3.4917,-3.4917,-3.4959,-3.4971,-3.4975,-3.5004,-3.5014,-3.5037,-3.5039,-3.5072,-3.5079,-3.5082,-3.511,-3.5109,-3.5141,-3.5139,-3.5188,-3.5182,-3.5183,-3.5181,-3.5213,-3.521,-3.532,-3.5334,-3.5239,-3.524,-3.5241,0,-3.4962,-3.4989,-3.5004,-3.5021,-3.5029,-3.5055,-3.5071,-3.5067,-3.5084,-3.5104,-3.5125,-3.5152,-3.5173,-3.5219,-3.5224,-3.5249,-3.5243,-3.528,-3.5246,-3.5248,-3.5242,-3.524,-3.5243,-3.5286,-3.5287,-3.5288,-3.5288,0,-3.5041,-3.5041,-3.5063,-3.5087,-3.5106,-3.5125,-3.5141,-3.5156,-3.5154,-3.5174,-3.5202,-3.5219,-3.5253,-3.528,-3.5304,-3.5312,-3.53,-3.5299,-3.5308,-3.5309,-3.5308,-3.5308,-3.5199,-3.5296,-3.5295,-3.5295,-3.5294,-3.5294,-3.5098,-3.5122,-3.5137,-3.5163,-3.5176,-3.5193,-3.5215,-3.5221,-3.5245,-3.5272,-3.5269,-3.5301,-3.5317,-3.5349,-3.536,-3.5385,-3.5372,-3.5385,-3.5388,-3.5391,-3.5394,-3.5306,-3.539,-3.539,-3.539,-3.539,-3.5389,0,-3.5176,-3.5185,-3.521,-3.5235,-3.5256,-3.5244,-3.5263,-3.5282,-3.531,-3.5327,-3.5349,-3.5383,-3.541,-3.5419,-3.5445,-3.5464,-3.5459,-3.5471,-3.5469,-3.5471,-3.5405,-3.5394,-3.5475,-3.5475,-3.5474,-3.5474,-3.5474,-3.5474,-3.5219,-3.5258,-3.526,-3.5306,-3.5315,-3.5347,-3.5359,-3.5375,-3.5388,-3.5426,-3.5449,-3.5455,-3.5469,-3.5496,-3.5521,-3.5523,-3.5533,-3.5547,-3.5547,-3.5484,-3.5475,-3.5467,-3.5457,-3.5549,-3.555,-3.561,-3.5611,-3.5611]},{"header":{"parameterUnit":"m.s-1","parameterCategory":1,"la1":30.2991,"la2":30.254,"lo1":-89.0895,"lo2":-89.0444,"dy":0.0017,"dx":0.0017,"nx":28,"ny":28,"refTime":"2023-04-16T21:00:00:Z","depth":0,"parameterNumber":3,"parameterNumberName":"V-component_of_WINDS"},"data":[0,0,0,0,0,0,0,0,0,0,0,0,0,0,0,0,0,0,0,0,0,0,0,0,0,0,0,0,0,0,0,0,0,0,0,0,0,0,0,0,0,0,0,0,0,0,0,0,0,0,0,0,0,0,0,0,0,0,4.0716,4.0716,0,4.0721,4.0721,4.0722,4.0734,4.0734,4.0735,4.0735,4.0737,4.0737,4.0737,0,0,0,0,0,0,0,0,0,0,0,0,0,4.0713,4.0713,4.0716,4.0716,4.0716,4.0721,4.0721,4.0722,4.0734,4.0734,4.0735,4.0735,4.0737,4.0737,4.0737,0,0,0,0,0,0,0,0,0,0,0,0,0,4.0716,4.0713,4.0716,4.0723,4.0723,4.0721,4.0721,4.0722,4.0734,4.0734,4.0735,4.0735,4.0737,4.0737,4.0737,4.0727,0,0,4.0736,4.0736,0,0,0,0,0,0,0,0,4.0716,4.0716,4.0722,4.0722,4.0723,4.0728,4.0721,4.0723,4.0734,4.073,4.0735,4.0735,4.0733,4.0733,4.0734,4.0727,4.0727,4.0736,4.0736,4.0735,4.0735,0,0,0,0,0,0,0,4.0715,4.0716,4.0718,4.0722,4.0723,4.0725,4.0726,4.0722,4.0729,4.073,4.0731,4.0732,4.0734,4.0734,4.0734,4.0727,4.0736,4.0736,4.0735,4.0735,4.0714,4.0714,0,0,0,0,0,0,4.0715,4.0715,4.0718,4.0718,4.072,4.0725,4.0726,4.0726,4.0729,4.073,4.0732,4.0732,4.0734,4.0734,4.0734,4.0723,4.0735,4.0735,4.0735,4.0715,4.0714,4.0714,0,0,0,0,0,0,4.0714,4.0715,4.0717,4.0717,4.0718,4.0724,4.0724,4.0726,4.0726,4.073,4.0731,4.073,4.0734,4.0734,4.0729,4.0724,4.0735,4.0735,4.0715,4.0714,4.0714,4.0702,0,0,0,0,0,0,4.0714,4.0715,4.0711,4.0717,4.0718,4.0713,4.0724,4.0725,4.0725,4.0727,4.0729,4.073,4.0735,4.0729,4.0729,4.0723,4.0735,4.0716,4.0715,4.0714,4.0703,4.0701,4.07,0,0,0,0,0,4.0714,4.0707,4.0711,4.0711,4.0714,4.0713,4.0713,4.0719,4.0725,4.0722,4.0725,4.073,4.0724,4.0729,4.0728,4.0723,4.0716,4.0715,4.0714,4.0704,4.0702,4.07,0,0,0,0,0,0,4.0699,4.0707,4.0712,4.0707,4.0709,4.0715,4.0711,4.0717,4.0717,4.0718,4.0724,4.0725,4.0719,4.072,4.0725,4.0714,4.0721,4.072,4.0713,4.0711,4.071,4.0709,4.0734,0,0,0,0,0,4.0695,4.0694,4.0702,4.0696,4.0697,4.0704,4.0704,4.0709,4.0711,4.0711,4.0714,4.0715,4.0714,4.0713,4.0712,4.0703,4.0704,4.0699,4.0698,4.0696,4.0695,4.0692,4.069,4.0711,4.0711,4.0711,0,0,4.0686,4.0691,4.069,4.0693,4.0695,4.0694,4.0704,4.0702,4.0701,4.0711,4.0707,4.0709,4.071,4.0704,4.0701,4.0705,4.069,4.0695,4.0694,4.0694,4.0691,4.0689,4.0687,4.071,4.071,4.071,0,0,4.067,4.0674,4.067,4.0673,4.0677,4.0682,4.0681,4.0687,4.0689,4.0685,4.0693,4.0691,4.0688,4.069,4.069,4.0676,4.0681,4.0676,4.0667,4.0663,4.0662,4.066,4.0656,4.0654,4.0675,4.0675,4.0675,0,4.0659,4.0658,4.0667,4.0665,4.0666,4.0677,4.0673,4.0674,4.0677,4.0678,4.0682,4.068,4.0682,4.0676,4.0673,4.0673,4.0672,4.0675,4.0662,4.066,4.0659,4.0655,4.0653,4.0674,4.0674,4.0674,4.0674,0,4.0644,4.0644,4.064,4.0645,4.0646,4.0642,4.065,4.065,4.0655,4.0659,4.0656,4.0658,4.0659,4.0658,4.0662,4.0653,4.0655,4.0661,4.0668,4.0656,4.0652,4.0651,4.0673,4.0673,4.0673,4.0674,0,0,4.0618,4.0629,4.0627,4.063,4.0636,4.0636,4.0633,4.0635,4.0634,4.0636,4.0634,4.0633,4.0638,4.0639,4.0643,4.064,4.063,4.0646,4.0646,4.0643,4.0621,4.0617,4.0615,4.0634,4.0633,4.0633,4.0621,0,4.0603,4.0601,4.0609,4.0604,4.0604,4.0615,4.0612,4.0616,4.062,4.062,4.0624,4.0623,4.063,4.063,4.0628,4.0632,4.0626,4.0633,4.0631,4.0631,4.0631,4.0613,4.0609,4.0597,4.062,4.0619,4.0619,0,4.0586,4.0589,4.0584,4.0592,4.0592,4.0591,4.0593,4.0593,4.0597,4.0601,4.0602,4.0608,4.0606,4.0613,4.061,4.0615,4.0615,4.0617,4.0616,4.0616,4.0624,4.0613,4.0594,4.0592,4.0617,4.0617,4.0617,0,4.0567,4.057,4.0568,4.057,4.0579,4.0578,4.0581,4.0586,4.0587,4.0589,4.059,4.0591,4.0592,4.0592,4.0598,4.0603,4.0595,4.0602,4.0597,4.0597,4.0594,4.0594,4.0575,4.0594,4.0594,4.0594,4.0594,0,4.055,4.0547,4.0561,4.0559,4.0556,4.0566,4.0562,4.0566,4.0571,4.057,4.0579,4.0578,4.0586,4.0586,4.0591,4.0588,4.0588,4.059,4.0592,4.059,4.0589,4.0589,4.059,4.0594,4.0594,4.0594,4.0594,0,4.0529,4.0538,4.0536,4.0546,4.0548,4.0545,4.0553,4.0552,4.0557,4.0557,4.0557,4.0565,4.0565,4.0572,4.0573,4.0577,4.0572,4.0574,4.0571,4.0572,4.0566,4.0567,4.0546,4.0544,4.0564,4.0564,4.0564,0,4.0517,4.0516,4.0525,4.0526,4.053,4.0531,4.0533,4.0542,4.0543,4.0549,4.0547,4.0549,4.055,4.0551,4.0556,4.0557,4.056,4.0553,4.056,4.0559,4.056,4.056,4.056,4.0551,4.0551,4.0551,4.055,0,4.0496,4.0501,4.0504,4.0508,4.051,4.0514,4.0518,4.0518,4.0528,4.0529,4.0531,4.0532,4.0535,4.0536,4.0539,4.0541,4.0548,4.0548,4.0547,4.0545,4.0543,4.0545,4.0567,4.0549,4.0549,4.0549,4.0549,4.0549,4.048,4.0479,4.0486,4.0489,4.0494,4.0498,4.0498,4.0504,4.0506,4.0509,4.0515,4.0516,4.052,4.0525,4.0527,4.0528,4.0531,4.0529,4.0529,4.0529,4.0528,4.0544,4.0528,4.0528,4.0528,4.0528,4.0528,0,4.0459,4.0465,4.0468,4.0474,4.0476,4.0484,4.0489,4.049,4.0491,4.0496,4.0498,4.05,4.0502,4.0508,4.0511,4.051,4.0513,4.051,4.051,4.0511,4.0524,4.0525,4.0508,4.0508,4.0508,4.0508,4.0508,4.0508,4.0449,4.0449,4.0455,4.0457,4.0462,4.0464,4.0467,4.047,4.0474,4.0477,4.0479,4.0484,4.0489,4.0492,4.0494,4.0496,4.0496,4.0493,4.0495,4.0508,4.051,4.0511,4.0512,4.0493,4.0493,4.0482,4.0482,4.0482]}]]